Weather History for KRNM - November, 2012

Change the Weather History Date:

Tuesday, November 13, 2012

  Actual Average Record
Temperature  
Mean Temperature 58 °F 56 °F  
Max Temperature 83 °F 72 °F 92 °F (2013)
Min Temperature 33 °F 41 °F 29 °F (2000)
Degree Days  
Heating Degree Days 7 9  
Month to date heating degree days 104 95  
Since 1 July heating degree days 184 214  
Cooling Degree Days 0 0  
Month to date cooling degree days 3 4  
Year to date cooling degree days 1035 848  
Growing Degree Days 8 (Base 50)    
Moisture  
Dew Point 9 °F    
Average Humidity 37    
Maximum Humidity 70    
Minimum Humidity 4    
Precipitation  
Precipitation 0.00 in 0.04 in 0.34 in (1997)
Month to date precipitation 0.40 0.54  
Year to date precipitation 8.22 13.16  
Since 1 July precipitation 1.30 1.83  
Snow  
Snow 0.00 in - - ()
Month to date snowfall 0.0  
Year to date snowfall 0.0  
Since 1 July snowfall 0.0  
Snow Depth 0.00 in    
Sea Level Pressure  
Sea Level Pressure 30.05 in    
Wind  
Wind Speed 12 mph (ENE)    
Max Wind Speed 23 mph    
Max Gust Speed 30 mph    
Visibility 10 miles    
Events      
T = Trace of Precipitation, MM = Missing Value Source: NWS Daily Summary

Daily Weather History Graph

Daily Weather History Graph

Search for Another Location

Airport or City:

Trip Planner

Search our weather history database for the weather conditions in past years. The results will help you decide how hot, cold, wet, or windy it might be!

Date:

Astronomy

Nov. 13, 2012 Rise Set
Actual Time 6:16 AM PST 4:46 PM PST
Civil Twilight 5:50 AM PST 5:12 PM PST
Nautical Twilight 5:21 AM PST 5:42 PM PST
Astronomical Twilight 4:51 AM PST 6:11 PM PST
Moon 5:59 AM PST (11/13) 4:45 PM PST (11/13)
Length of Visible Light 11h 22m
Length of Day
10h 29m
Waning Crescent, 0% of the Moon is Illuminated
Nov 13
Waning Crescent
Nov 13
New
Nov 20
First Quarter
Nov 28
Full
Dec 6
Last Quarter

Hourly Weather History & Observations

Time (PST) Temp. Windchill Dew Point Humidity Pressure Visibility Wind Dir Wind Speed Gust Speed Precip Events Conditions
12:53 AM 36.0 °F 31.1 °F 26.1 °F 67% 30.12 in 10.0 mi ESE 5.8 mph - N/A   Clear
1:53 AM 39.0 °F 35.7 °F 23.0 °F 53% 30.11 in 10.0 mi East 4.6 mph - N/A   Clear
2:53 AM 35.1 °F - 26.1 °F 70% 30.09 in 10.0 mi Calm Calm - N/A   Clear
3:53 AM 60.1 °F - 3.9 °F 11% 30.06 in 10.0 mi ENE 12.7 mph - N/A   Clear
4:53 AM 62.1 °F - -4.0 °F 7% 30.06 in 10.0 mi ENE 4.6 mph - N/A   Clear
5:53 AM 64.9 °F - -8.0 °F 5% 30.06 in 10.0 mi ENE 10.4 mph 16.1 mph N/A   Clear
6:53 AM 66.0 °F - -8.0 °F 5% 30.07 in 10.0 mi East 18.4 mph 25.3 mph N/A   Clear
7:53 AM 70.0 °F - -8.0 °F 4% 30.09 in 10.0 mi ENE 20.7 mph - N/A   Clear
8:53 AM 73.0 °F - -5.1 °F 4% 30.09 in 10.0 mi ENE 18.4 mph 26.5 mph N/A   Clear
9:53 AM 75.0 °F - -4.0 °F 4% 30.08 in 10.0 mi East 18.4 mph 25.3 mph N/A   Clear
10:53 AM 78.1 °F - -0.9 °F 5% 30.07 in 10.0 mi ENE 12.7 mph - N/A   Clear
11:53 AM 80.1 °F - 1.0 °F 5% 30.04 in 10.0 mi East 16.1 mph - N/A   Clear
12:53 PM 81.0 °F - 6.1 °F 6% 30.02 in 10.0 mi ENE 15.0 mph - N/A   Clear
1:53 PM 82.0 °F - 6.1 °F 6% 29.99 in 10.0 mi East 12.7 mph 21.9 mph N/A   Clear
2:53 PM 80.1 °F - 6.1 °F 6% 29.99 in 10.0 mi ENE 16.1 mph 20.7 mph N/A   Clear
3:53 PM 77.0 °F - 3.9 °F 6% 29.98 in 10.0 mi East 12.7 mph - N/A   Clear
4:53 PM 71.1 °F - 6.1 °F 8% 29.99 in 10.0 mi ENE 8.1 mph - N/A   Clear
5:53 PM 66.0 °F - 9.0 °F 11% 30.00 in 10.0 mi ENE 8.1 mph - N/A   Clear
6:53 PM 62.1 °F - 10.9 °F 13% 30.01 in 10.0 mi NE 8.1 mph - N/A   Clear
7:53 PM 57.0 °F - 16.0 °F 20% 30.01 in 10.0 mi ENE 3.5 mph - N/A   Clear
8:53 PM 48.0 °F - 21.0 °F 34% 30.03 in 10.0 mi NE 4.6 mph - N/A   Clear
9:53 PM 45.0 °F - 24.1 °F 44% 30.03 in 10.0 mi Calm Calm - N/A   Clear
10:53 PM 45.0 °F 43.5 °F 26.1 °F 48% 30.04 in 10.0 mi East 3.5 mph - N/A   Clear
11:53 PM 42.1 °F 39.2 °F 27.0 °F 55% 30.05 in 10.0 mi ESE 4.6 mph - N/A   Clear